Welcome to the New NWS' Forecast!
Most changes are behind the scenes, but click here for differences you might notice.

Regional Weather Roundup (RWR)

Issued by National Weather Service (NWS)

                            
000
ASUS46 KSEW 160810
RWRWA 

WASHINGTON REGIONAL WEATHER ROUNDUP
NATIONAL WEATHER SERVICE SEATTLE WA
1200 AM PST FRI NOV 16 2018

NOTE:"FAIR" INDICATES FEW OR NO CLOUDS BELOW 12,000 FEET WITH NO 
SIGNIFICANT WEATHER AND/OR OBSTRUCTIONS TO VISIBILITY.

WAZ507-509-555>559-160900-
SEATTLE, TACOMA, EVERETT, AND VICINITY
  
CITY           SKY/WX    TMP DP  RH WIND       PRES   REMARKS
EVERETT        LGT RAIN  50  48  93 SE7       30.19S                  
BOEING FIELD   CLOUDY    55  45  68 S5        30.19F                  
RENTON         CLOUDY    56  46  69 SE8       30.19F                  
SEATAC AIRPORT CLOUDY    54  46  74 S13       30.19F                  
JBLM-MCCHORD   CLOUDY    53  51  95 S8        30.20F                  
PUYALLUP       CLOUDY    55  48  76 VRB3      30.21S                  
BREMERTON      CLOUDY    51  49  92 S6        30.18F                  
JBLM-FT LEWIS  CLOUDY    53  52  99 S8        30.19F                  
TACOMA NARROWS CLOUDY    52  46  80 S10       30.19F                  
$$
 
WAZ001-503-506-510-514-515-160900-
NORTH INTERIOR
  
CITY           SKY/WX    TMP DP  RH WIND       PRES   REMARKS
BELLINGHAM     LGT RAIN  52  47  83 S12       30.17R                  
FRIDAY HARBOR  CLOUDY    52  48  86 N6        30.18R                  
EASTSOUND      CLOUDY    52  50  93 S9        30.16R                  
PORT ANGELES   CLOUDY    53  49  86 CALM      30.17R                  
EDIZ HOOK      CLOUDY    51  48  90 CALM      30.17R                  
PORT TOWNSEND  CLOUDY    50  50 100 MISG      30.17F                  
NAS WHIDBEY    LGT RAIN  53  49  86 SE9       30.21S                  
ARLINGTON      LGT RAIN  50  49  96 S9        30.19F                  
BURLINGTON     CLOUDY    50  50 100 SE5       30.19R                  
$$
 
WAZ020-022-039-040-504-511-512-160900-
SOUTHWEST INTERIOR
  
CITY           SKY/WX    TMP DP  RH WIND       PRES   REMARKS
SHELTON        CLOUDY    52  50  93 W8        30.17F FOG              
OLYMPIA        CLOUDY    52  47  83 S14       30.20F                  
CHEHALIS       CLOUDY    50  48  93 S8        30.23F                  
KELSO          CLOUDY    45  44  97 S3        30.27S                  
VANCOUVER      CLEAR     44  42  93 CALM      30.26S                  
SCAPPOOSE, OR  MOCLDY    42  40  92 CALM      30.26S                  
PORTLAND, OR   PTCLDY    44  42  93 SE3       30.27S                  
$$
 
WAZ021-516-517-160900-
WASHINGTON COAST
  
CITY           SKY/WX    TMP DP  RH WIND       PRES   REMARKS
FORKS          CLOUDY    51  51 100 S3        30.20F FOG              
HOQUIAM        CLOUDY    54  54 100 SW12      30.22S FOG              
ASTORIA, OR    CLOUDY    47  46  97 CALM      30.25F                  
$$
 
WAZ019-023-024-040-567>569-160900-
CASCADE MOUNTAINS AND COLUMBIA GORGE
  
CITY           SKY/WX    TMP DP  RH WIND       PRES   REMARKS
STAMPEDE PASS  NOT AVBL                                               
TROUTDALE, OR  MOCLDY    40  39  97 E3        30.27S FOG              
HOOD RIVER, OR SUNNY     37  36  93 CALM      30.20S                  
THE DALLES, OR CLEAR     41  37  86 SW8       30.18F                  
$$

WAZ026-027-041>044-520-521-160900-
EAST SLOPES
  
CITY           SKY/WX    TMP DP  RH WIND       PRES   REMARKS
OMAK           PTCLDY    33  32  96 N7        30.14R                  
WENATCHEE      MOCLDY    34  32  92 NW6       30.10F FOG              
ELLENSBURG     CLOUDY    50  40  68 W9        30.11F                  
YAKIMA         CLOUDY    34  30  85 CALM      30.16S                  
SUNNYSIDE ARPT CLOUDY    32  32  99 CALM      30.16S FOG              
YAKIMA TC      PTSUNNY   35  31  86 CALM      30.12F                  
$$

WAZ028-034-035-160900-
COLUMBIA BASIN
  
CITY           SKY/WX    TMP DP  RH WIND       PRES   REMARKS
EPHRATA        CLOUDY    36  33  89 N7        30.10S                  
MOSES LAKE     CLOUDY    36  33  89 CALM      30.11F FOG              
PASCO          CLOUDY    35  33  92 NW3       30.16S FOG              
RICHLAND ARPT  CLOUDY    37  36  94 CALM      30.16  FOG              
HERMISTON, OR  MOCLDY    36  34  92 CALM      30.15F                  
$$

WAZ036>038-160900-
NORTHEAST WASHINGTON
  
CITY           SKY/WX    TMP DP  RH WIND       PRES   REMARKS
SPOKANE GEIGER CLOUDY    41  37  86 SW12      30.07S                  
SPOKANE FELTS  CLOUDY    43  40  89 CALM      30.09F                  
FAIRCHILD AFB  PTCLDY    39  39 100 SW10      30.07R                  
COEURDALENE,ID CLOUDY    39  38  96 S5        30.08F                  
DEER PARK      CLOUDY    36  35  96 CALM      30.09S FOG              
$$

WAZ029>033-160900-
SOUTHEAST WASHINGTON
  
CITY           SKY/WX    TMP DP  RH WIND       PRES   REMARKS
PULLMAN        CLOUDY    42  38  85 CALM      30.13F                  
LEWISTON, ID   CLOUDY    43  36  76 CALM      30.13F                  
WALLA WALLA    MOCLDY    47  37  68 S5        30.13F                  
PENDLETON, OR  PTCLDY    39  35  86 S12       30.14F                  
$$